Regional Weather Roundup
Issued by NWS

Home | Current Version | Previous Version | Graphics & Text | Print | Product List | Glossary On
Versions: 1 2 3 4 5 6 7 8 9 10 11 12 13 14 15 16 17 18 19 20 21 22 23 24 25 26 27 28 29 30 31 32 33 34 35 36 37 38 39 40 41 42 43 44 45 46 47 48 49 50
000
ASUS43 KLMK 232202
RWRKY
KENTUCKY REGIONAL WEATHER ROUNDUP
NATIONAL WEATHER SERVICE LOUISVILLE KY
600 PM EDT SAT JUL 23 2016

NOTE "FAIR" INDICATES FEW OR NO CLOUDS BELOW 12,000 FEET
WITH NO SIGNIFICANT WEATHER AND/OR OBSTRUCTIONS TO VISIBILITY.

KYZ001>023-026-027-061>063-070>075-232300-
WESTERN AND SOUTH CENTRAL KENTUCKY

CITY           SKY/WX    TMP DP  RH WIND       PRES   REMARKS
PADUCAH        SUNNY     93  75  55 NE5       29.91F HX 104
HENDERSON      MOSUNNY   90  75  62 SE3       29.92F HX 100
OWENSBORO      MOSUNNY   92  76  59 NW7       29.94F HX 104
HOPKINSVILLE   DRIZZLE   89  77  68 N7        29.93F HX 102
BOWLING GREEN  SUNNY     92  75  57 SE3       29.94F HX 103
GLASGOW        NOT AVBL
$$

KYZ024-025-028>034-038-045-046-053-232300-
NORTH CENTRAL KENTUCKY

CITY           SKY/WX    TMP DP  RH WIND       PRES   REMARKS
LOUISVILLE/SDF PTSUNNY   95  70  44 VRB7      29.94F HX 101
LOUISVILLE/LOU SUNNY     93  70  46 W3        29.95F HX  99
FORT KNOX      SUNNY     90  72  55 W5        29.95F HX  97
$$

KYZ035>037-039>044-047>052-055>060-089>105-232300-
NORTHEAST KENTUCKY

CITY           SKY/WX    TMP DP  RH WIND       PRES   REMARKS
LEXINGTON      SUNNY     92  70  48 W5        29.99F HX  97
COVINGTON      MOSUNNY   93  72  50 N7        29.97F HX 101
FRANKFORT      SUNNY     92  71  50 W6        29.97F HX  98
$$

KYZ054-064>069-076>088-106>120-232300-
SOUTHEAST KENTUCKY

CITY           SKY/WX    TMP DP  RH WIND       PRES   REMARKS
JACKSON        SUNNY     89  72  56 VRB3      30.01F HX  96
LONDON         SUNNY     92  68  45 NE5       30.00F HX  96
SOMERSET       CLOUDY    90  70  51 CALM      29.99F HX  95
MIDDLESBORO    MOSUNNY   91  72  54 N6        30.00S HX  97
MONTICELLO     CLOUDY   N/A N/A N/A N13       30.00F
$$





USA.gov is the U.S. government's official web portal to all federal, state and local government web resources and services.